Regional Weather Roundup
Issued by NWS Charleston, WV

Current Version | Previous Version | Text Only | Print | Product List | Glossary On
Versions: 1 2 3 4 5 6 7 8 9 10 11 12 13 14 15 16 17 18 19 20 21 22 23 24 25 26 27 28 29 30 31 32 33 34 35 36 37 38 39 40 41 42 43 44 45 46 47 48 49 50
000
ASUS41 KRLX 020410
RWRRLX
West Virginia Regional Weather Roundup
National Weather Service Charleston WV
1200 AM EDT WED SEP 02 2015

Note: "fair" indicates few or no clouds below 12,000 feet with no
significant weather and/or obstructions to visibility.

WVZ003-020500-
Northern Panhandle of West Virginia

CITY           SKY/WX    TMP DP  RH WIND       PRES   REMARKS
WHEELING       CLEAR     73  67  81 SW3       30.12S
$$

WVZ009-020500-
Northwest West Virginia

CITY           SKY/WX    TMP DP  RH WIND       PRES   REMARKS
PARKERSBURG    CLEAR     70  67  90 CALM      30.14S
$$

WVZ006-020500-
Western West Virginia

CITY           SKY/WX    TMP DP  RH WIND       PRES   REMARKS
HUNTINGTON       N/A     71  69  93 CALM      30.12S
$$

WVZ015-020500-
West Central West Virginia

CITY           SKY/WX    TMP DP  RH WIND       PRES   REMARKS
CHARLESTON     PTCLDY    71  67  87 CALM      30.12S
$$

WVZ022-031-020500-
North Central West Virginia

CITY           SKY/WX    TMP DP  RH WIND       PRES   REMARKS
CLARKSBURG     PTCLDY    72  67  84 CALM      30.13S
MORGANTOWN     MOCLDY    78  64  61 CALM      30.14S
$$

WVZ025-035-042-045-020500-
Southern West Virginia

CITY           SKY/WX    TMP DP  RH WIND       PRES   REMARKS
BECKLEY        PTCLDY    67  63  87 CALM      30.21F
LOGAN            N/A     72  68  88 CALM      30.16S HAZE
BLUEFIELD      PTCLDY    71  63  75 CALM      30.24S
LEWISBURG      PTCLDY    68  66  93 CALM      30.20S FOG
$$

WVZ047-020500-
Northern Mountains of West Virginia

CITY           SKY/WX    TMP DP  RH WIND       PRES   REMARKS
ELKINS         MOCLDY    65  62  90 CALM      30.20R
$$

WVZ052-020500-
Eastern Panhandle of West Virginia

CITY           SKY/WX    TMP DP  RH WIND       PRES   REMARKS
MARTINSBURG    PTCLDY    76  67  73 NW6       30.08R
PETERSBURG     MOCLDY    69  68  96 CALM      30.12F FOG
$$


USA.gov is the U.S. government's official web portal to all federal, state and local government web resources and services.